Retour au catalogue

DELTA 1 DEB

ActifSSO
NORAD 13531·DEBRIS·🇺🇸 United States

Lancé Jul 29, 1976 depuis Vandenberg Space Force Base

Loading…

Prochains Passages (prochaines 24 heures)

TLE

FraisSource: Space-Track

Époque: Sep 14, 2026, 21:45 UTC

1 13531U 76077ED  26257.90636863 -.00000022  00000-0  23347-3 0  9990
2 13531 102.7646 236.4439 0142325  13.2867  13.8303 12.17165564966979

Suivez DELTA 1 DEB en temps réel avec AllMySat

Download on the App Store